PBO Station Position Time Series. Reference Frame : NAM14
Format Version,1.1.0
4-character ID,ALTH
Station name,None
Begin Date, 2010-09-27
End Date, 2019-09-10
Release Date, 2019-10-03
Reference position, 36.8896064923 North Latitude, -120.6697623980 East Longitude, 18.62703 meters elevation,
Date, North (mm), East (mm), Vertical (mm), North Std. Deviation (mm), East Std. Deviation (mm),              Vertical Std. Deviation (mm), Quality,
2010-09-27,0.00, 0.00, 0.00, 1.98, 1.62, 7.14, repro,
2010-09-28,-0.47, -0.44, 2.11, 1.99, 1.64, 7.20, repro,
2010-09-29,-1.34, -0.54, 5.78, 1.94, 1.55, 6.99, repro,
2010-09-30,-0.88, -0.34, 4.40, 1.98, 1.57, 7.10, repro,
2010-10-01,-2.48, 0.64, 3.75, 1.98, 1.58, 7.14, repro,
2010-10-02,-0.04, 0.01, 10.78, 1.95, 1.57, 7.14, repro,
2010-10-03,-0.45, -1.72, 0.95, 1.98, 1.62, 7.25, repro,
2010-10-04,-0.33, -1.10, 4.91, 1.98, 1.59, 7.17, repro,
2010-10-05,0.01, -0.80, 2.89, 1.94, 1.57, 7.05, repro,
2010-10-06,-0.62, -0.16, -3.25, 1.95, 1.57, 7.07, repro,
2010-10-07,0.92, -1.29, 1.91, 2.48, 2.01, 8.87, repro,
2010-10-13,-1.25, 1.31, 1.06, 3.12, 2.64, 11.72, repro,
2010-10-14,-0.19, 0.51, 1.78, 1.97, 1.61, 7.23, repro,
2010-10-15,-0.67, 0.55, 0.43, 2.00, 1.62, 7.33, repro,
2010-10-16,0.05, 0.02, 7.13, 1.97, 1.59, 7.14, repro,
2010-10-17,-0.64, 0.07, 9.14, 2.00, 1.63, 7.35, repro,
2010-10-18,0.48, 0.95, -2.83, 2.03, 1.63, 7.37, repro,
2010-10-19,-0.60, -0.14, -1.09, 1.96, 1.59, 7.08, repro,
2010-10-20,-0.12, -0.51, 2.94, 1.95, 1.57, 7.05, repro,
2010-10-21,-0.85, -0.04, 3.80, 1.96, 1.61, 7.16, repro,
2010-10-22,0.43, -0.89, 12.53, 1.95, 1.60, 7.20, repro,
2010-10-23,-0.06, -0.74, 9.99, 2.01, 1.62, 7.28, repro,
2010-10-24,-1.21, -1.18, 6.48, 1.98, 1.59, 7.18, repro,
2010-10-25,-0.57, 1.04, 1.93, 1.99, 1.60, 7.30, repro,
2010-10-26,2.33, -0.28, 1.40, 1.96, 1.59, 7.19, repro,
2010-10-27,-0.07, -0.37, -0.91, 1.93, 1.60, 7.14, repro,
2010-10-28,0.96, -0.28, -1.42, 1.92, 1.57, 7.06, repro,
2010-10-29,0.83, -0.41, 6.41, 2.06, 1.65, 7.45, repro,
2010-10-30,1.16, -0.38, 6.69, 1.94, 1.57, 7.06, repro,
2010-10-31,0.61, -0.79, 2.97, 2.00, 1.65, 7.28, repro,
2010-11-01,-0.73, -0.43, -2.87, 1.99, 1.65, 7.34, repro,
2010-11-02,0.39, 0.41, -6.48, 1.92, 1.56, 7.01, repro,
2010-11-03,1.06, 0.47, -2.28, 1.96, 1.58, 7.15, repro,
2010-11-04,-0.57, 0.73, -1.21, 1.94, 1.57, 7.08, repro,
2010-11-05,0.77, 1.23, 5.11, 1.96, 1.60, 7.16, repro,
2010-11-06,0.68, 0.25, 11.18, 1.93, 1.57, 7.06, repro,
2010-11-07,-0.53, 1.08, 9.60, 1.93, 1.55, 7.05, repro,
2010-11-08,-2.48, -0.42, 8.81, 1.94, 1.56, 7.10, repro,
2010-11-09,-0.67, -0.19, 0.50, 1.94, 1.56, 7.10, repro,
2010-11-10,0.21, 0.61, 6.04, 1.95, 1.57, 7.11, repro,
2010-11-11,0.88, -0.99, -0.68, 1.92, 1.55, 7.01, repro,
2010-11-12,0.93, -0.01, -2.03, 1.92, 1.55, 7.00, repro,
2010-11-13,0.16, 0.12, -3.36, 1.97, 1.61, 7.20, repro,
2010-11-14,-1.36, -0.41, 4.55, 2.01, 1.63, 7.34, repro,
2010-11-15,0.33, 1.01, 0.98, 1.97, 1.59, 7.22, repro,
2010-11-16,1.51, 1.30, 1.66, 1.99, 1.60, 7.28, repro,
2010-11-17,0.22, 1.23, 4.76, 2.03, 1.62, 7.45, repro,
2010-11-18,0.16, -0.31, 5.79, 2.16, 1.75, 7.84, repro,
2010-11-19,-1.91, 0.44, 8.02, 2.25, 1.78, 7.96, repro,
2010-11-20,-0.17, -0.52, 11.62, 2.03, 1.61, 7.32, repro,
2010-11-21,-1.20, -0.29, 5.68, 2.04, 1.66, 7.39, repro,
2010-11-22,-1.41, -0.77, 9.30, 2.03, 1.64, 7.36, repro,
2010-11-23,-2.09, -1.18, 7.23, 1.97, 1.59, 7.20, repro,
2010-11-24,0.87, -0.09, 9.21, 1.99, 1.59, 7.23, repro,
2010-11-25,-0.33, 0.01, 3.89, 1.97, 1.58, 7.18, repro,
2010-11-26,0.97, 0.40, 2.68, 1.98, 1.58, 7.17, repro,
2010-11-27,0.56, -0.65, 5.24, 1.99, 1.58, 7.22, repro,
2010-11-28,-1.39, -0.58, 12.74, 1.97, 1.55, 7.13, repro,
2010-11-29,-0.31, -0.84, 3.76, 2.00, 1.59, 7.31, repro,
2010-11-30,0.22, -0.37, 0.73, 1.97, 1.58, 7.21, repro,
2010-12-01,-0.01, 0.03, -5.22, 2.06, 1.63, 7.51, repro,
2010-12-02,1.04, 0.27, 1.81, 1.98, 1.59, 7.26, repro,
2010-12-03,1.01, 0.90, 1.26, 2.00, 1.59, 7.26, repro,
2010-12-04,-2.45, 0.45, 4.29, 2.02, 1.58, 7.38, repro,
2010-12-05,-0.14, -1.03, 7.20, 2.05, 1.63, 7.61, repro,
2010-12-06,-1.38, -0.29, 4.37, 2.02, 1.58, 7.29, repro,
2010-12-07,-0.17, 1.25, -0.88, 2.00, 1.61, 7.36, repro,
2010-12-08,0.80, 0.70, 0.31, 2.00, 1.59, 7.31, repro,
2010-12-09,-0.89, 1.23, 7.25, 1.96, 1.54, 7.07, repro,
2010-12-10,-0.62, -0.16, 7.75, 2.02, 1.61, 7.43, repro,
2010-12-11,-0.44, 0.84, 10.67, 1.97, 1.54, 7.11, repro,
2010-12-12,-0.90, 0.14, 1.75, 2.00, 1.55, 7.22, repro,
2010-12-13,-0.89, 1.32, 9.58, 1.99, 1.56, 7.22, repro,
2010-12-14,-1.01, 1.61, 7.72, 2.03, 1.60, 7.45, repro,
2010-12-15,-1.15, 0.42, 12.96, 2.09, 1.65, 7.65, repro,
2010-12-16,-0.51, 1.61, 7.33, 1.98, 1.58, 7.21, repro,
2010-12-17,-1.98, 1.29, 2.65, 2.01, 1.57, 7.15, repro,
2010-12-18,-1.96, 2.25, 5.74, 2.02, 1.60, 7.22, repro,
2010-12-19,-1.18, 1.57, 18.47, 1.98, 1.59, 7.28, repro,
2010-12-20,0.03, 1.11, 8.30, 1.99, 1.59, 7.30, repro,
2010-12-21,-0.12, 1.47, 3.01, 2.02, 1.64, 7.45, repro,
2010-12-22,-1.06, 1.10, 8.67, 2.08, 1.64, 7.41, repro,
2010-12-23,-2.69, 0.52, 5.34, 1.99, 1.58, 7.28, repro,
2010-12-24,-1.40, 1.61, 3.56, 1.98, 1.56, 7.20, repro,
2010-12-25,-4.93, 4.12, -7.40, 5.33, 3.85, 19.36, repro,
2010-12-26,-0.75, 0.57, -1.94, 2.01, 1.56, 7.23, repro,
2010-12-27,0.08, 0.77, 1.96, 1.94, 1.52, 7.00, repro,
2010-12-28,0.43, 1.54, 2.89, 2.03, 1.58, 7.30, repro,
2010-12-29,-0.74, 0.43, 8.46, 2.09, 1.63, 7.50, repro,
2010-12-30,-1.40, 1.20, 14.33, 2.03, 1.59, 7.40, repro,
2010-12-31,-0.78, 1.75, 8.82, 1.96, 1.52, 7.09, repro,
2011-01-01,-0.23, 1.72, 4.35, 1.97, 1.55, 7.16, repro,
2011-01-02,-0.73, 2.53, 5.67, 1.96, 1.52, 7.06, repro,
2011-01-03,-1.66, 1.61, 1.58, 2.00, 1.58, 7.34, repro,
2011-01-04,-1.42, 0.52, 4.62, 2.01, 1.56, 7.13, repro,
2011-01-05,1.05, 1.38, -1.30, 1.96, 1.53, 7.06, repro,
2011-01-06,0.14, 0.63, 4.97, 1.99, 1.58, 7.21, repro,
2011-01-07,0.22, 0.73, 6.00, 1.97, 1.55, 7.13, repro,
2011-01-08,-0.03, 2.15, 7.08, 1.97, 1.57, 7.12, repro,
2011-01-09,-0.46, 1.21, 3.37, 1.97, 1.54, 7.11, repro,
2011-01-10,-0.10, 0.92, 5.07, 2.03, 1.64, 7.51, repro,
2011-01-11,1.13, 1.79, -0.13, 2.05, 1.67, 7.57, repro,
2011-01-12,0.62, 1.48, -0.21, 2.00, 1.55, 7.17, repro,
2011-01-13,0.55, 1.75, -3.57, 2.00, 1.58, 7.20, repro,
2011-01-14,-0.70, 1.62, 2.99, 1.98, 1.57, 7.14, repro,
2011-01-15,0.67, 1.59, 2.36, 2.00, 1.58, 7.24, repro,
2011-01-16,-0.08, -0.61, 6.42, 1.97, 1.54, 7.11, repro,
2011-01-17,1.20, 0.57, 6.16, 2.02, 1.61, 7.32, repro,
2011-01-18,-0.71, 1.01, 9.10, 1.99, 1.57, 7.22, repro,
2011-01-19,0.16, 1.11, 5.75, 2.01, 1.60, 7.28, repro,
2011-01-20,0.86, 0.97, 3.45, 2.00, 1.56, 7.19, repro,
2011-01-21,-0.74, 0.18, 4.10, 2.11, 1.67, 7.78, repro,
2011-01-22,-0.61, -0.15, 10.16, 2.04, 1.57, 7.37, repro,
2011-01-23,0.29, 0.01, 9.32, 2.01, 1.60, 7.33, repro,
2011-01-24,-0.29, -0.43, 11.19, 1.97, 1.56, 7.22, repro,
2011-01-25,0.52, -0.31, 6.81, 1.97, 1.58, 7.20, repro,
2011-01-26,1.81, -0.00, 6.27, 2.14, 1.67, 7.84, repro,
2011-01-27,-0.50, 0.48, 3.30, 2.01, 1.63, 7.43, repro,
2011-01-28,-0.52, -1.09, 6.08, 1.96, 1.54, 7.10, repro,
2011-01-29,-0.17, -1.61, 5.95, 2.08, 1.68, 7.73, repro,
2011-01-30,0.66, 0.00, 8.89, 1.95, 1.52, 7.09, repro,
2011-01-31,-0.27, -1.34, -0.14, 1.99, 1.60, 7.32, repro,
2011-02-01,0.11, -1.54, -2.50, 1.96, 1.54, 7.10, repro,
2011-02-02,-0.89, -0.99, -0.64, 2.00, 1.60, 7.31, repro,
2011-02-03,0.93, -0.99, -1.83, 2.00, 1.60, 7.30, repro,
2011-02-04,-0.58, -1.21, 5.50, 2.05, 1.68, 7.60, repro,
2011-02-05,1.02, -0.73, 6.66, 2.01, 1.61, 7.40, repro,
2011-02-06,0.02, -0.60, 3.00, 2.03, 1.66, 7.58, repro,
2011-02-07,-0.52, -1.68, 1.13, 2.02, 1.65, 7.42, repro,
2011-02-08,-1.13, -2.56, 10.39, 2.01, 1.61, 7.40, repro,
2011-02-09,2.12, -1.52, 9.00, 1.99, 1.58, 7.37, repro,
2011-02-10,1.10, -1.21, 12.14, 1.99, 1.59, 7.29, repro,
2011-02-11,0.61, -1.40, 12.45, 1.98, 1.60, 7.26, repro,
2011-02-12,0.62, -1.39, 6.93, 1.99, 1.61, 7.34, repro,
2011-02-13,0.49, -1.54, 7.55, 1.95, 1.56, 7.17, repro,
2011-02-14,-0.88, -3.83, 11.22, 2.00, 1.58, 7.38, repro,
2011-02-15,-0.36, -2.66, 11.36, 2.01, 1.63, 7.44, repro,
2011-02-16,1.82, -2.45, 18.26, 2.01, 1.63, 7.48, repro,
2011-02-17,-0.33, -3.03, 18.92, 1.95, 1.56, 7.16, repro,
2011-02-18,-0.91, -2.13, 10.88, 1.96, 1.54, 7.11, repro,
2011-02-19,-1.54, -3.28, 12.33, 1.96, 1.53, 7.13, repro,
2011-02-20,-0.97, -4.69, 6.92, 2.34, 1.95, 8.85, repro,
2011-02-21,2.74, 3.48, 31.45, 9.10, 6.52, 39.13, repro,
2011-02-22,-0.94, -2.89, 10.19, 1.97, 1.56, 7.17, repro,
2011-02-23,-0.80, -1.79, 5.51, 2.01, 1.61, 7.31, repro,
2011-02-24,-1.38, -1.98, 12.39, 1.94, 1.52, 7.03, repro,
2011-02-25,-0.74, -2.50, 18.57, 1.94, 1.52, 7.06, repro,
2011-02-26,-0.63, -2.79, 28.65, 2.26, 1.85, 8.39, repro,
2011-02-28,-0.37, -2.19, 8.93, 3.42, 2.52, 11.90, repro,
2011-03-01,-1.68, -2.81, 3.76, 1.94, 1.52, 7.04, repro,
2011-03-02,-0.82, -4.45, 13.56, 1.95, 1.53, 7.13, repro,
2011-03-03,-1.60, -4.49, 13.34, 1.94, 1.52, 7.06, repro,
2011-03-04,-1.06, -2.87, 7.78, 1.95, 1.52, 7.06, repro,
2011-03-05,-1.20, -2.42, 1.94, 1.97, 1.52, 7.11, repro,
2011-03-06,0.17, -2.52, 11.73, 1.97, 1.55, 7.21, repro,
2011-03-07,-1.25, -3.69, 18.97, 1.94, 1.53, 7.08, repro,
2011-03-08,0.06, -3.42, 17.93, 1.97, 1.54, 7.10, repro,
2011-03-09,-0.55, -2.70, 10.38, 1.95, 1.51, 7.06, repro,
2011-03-10,-0.20, -4.49, 11.26, 1.98, 1.55, 7.26, repro,
2011-03-11,0.22, -2.82, 15.73, 1.96, 1.52, 7.14, repro,
2011-03-12,0.05, -3.12, 8.45, 1.95, 1.52, 7.08, repro,
2011-03-13,-1.33, -3.98, 16.73, 1.97, 1.54, 7.17, repro,
2011-03-14,-1.02, -3.28, 13.09, 2.01, 1.56, 7.25, repro,
2011-03-15,1.12, -3.76, 16.86, 2.03, 1.59, 7.34, repro,
2011-03-16,-1.45, -2.56, 14.37, 2.12, 1.62, 7.60, repro,
2011-03-17,-0.02, -3.85, 15.22, 2.11, 1.59, 7.44, repro,
2011-03-18,-0.39, -3.82, 15.39, 2.05, 1.57, 7.34, repro,
2011-03-19,-1.79, -3.52, 9.15, 2.06, 1.62, 7.45, repro,
2011-03-20,-1.41, -4.83, 19.40, 1.97, 1.52, 7.06, repro,
2011-03-21,-1.58, -3.45, 22.07, 2.09, 1.59, 7.37, repro,
2011-03-22,-0.99, -4.09, 20.88, 2.08, 1.58, 7.35, repro,
2011-03-23,-1.29, -2.18, 14.13, 2.03, 1.56, 7.22, repro,
2011-03-24,-1.46, -3.20, 18.40, 1.96, 1.52, 7.08, repro,
2011-03-26,-1.39, -4.37, 22.19, 2.11, 1.63, 7.44, repro,
2011-03-27,-2.00, -4.54, 12.88, 2.00, 1.55, 7.21, repro,
2011-03-28,-1.43, -4.40, 14.02, 1.98, 1.53, 7.16, repro,
2011-03-29,-1.83, -2.97, 9.91, 1.99, 1.54, 7.20, repro,
2011-03-30,-0.31, -3.70, 14.57, 2.04, 1.56, 7.31, repro,
2011-03-31,-0.54, -3.37, 9.52, 2.08, 1.60, 7.54, repro,
2011-04-01,-0.54, -4.07, 18.72, 2.02, 1.55, 7.21, repro,
2011-04-02,-0.73, -3.67, 18.82, 2.05, 1.57, 7.34, repro,
2011-04-03,-2.19, -4.68, 18.01, 2.08, 1.60, 7.38, repro,
2011-04-04,-0.88, -4.29, 16.89, 2.04, 1.58, 7.34, repro,
2011-04-05,-0.97, -3.79, 24.09, 2.09, 1.61, 7.58, repro,
2011-04-06,-0.82, -3.68, 19.18, 2.04, 1.57, 7.42, repro,
2011-04-07,-1.35, -5.18, 30.15, 2.01, 1.56, 7.31, repro,
2011-04-08,-1.67, -5.76, 23.32, 1.98, 1.53, 7.14, repro,
2011-04-09,-1.41, -4.32, 21.08, 2.02, 1.56, 7.22, repro,
2011-04-10,-0.79, -3.70, 22.87, 2.01, 1.58, 7.30, repro,
2011-04-11,-1.00, -4.30, 25.16, 2.04, 1.60, 7.32, repro,
2011-04-12,-0.83, -3.23, 16.24, 2.04, 1.60, 7.36, repro,
2011-04-13,-1.31, -4.67, 21.23, 1.96, 1.55, 7.23, repro,
2011-04-14,-1.06, -4.32, 15.94, 1.94, 1.52, 7.09, repro,
2011-04-15,-0.78, -4.13, 20.77, 1.96, 1.52, 7.11, repro,
2011-04-16,-1.35, -4.18, 19.88, 1.99, 1.55, 7.22, repro,
2011-04-17,-1.58, -3.89, 21.53, 1.97, 1.53, 7.15, repro,
2011-04-18,-2.45, -4.19, 26.88, 1.96, 1.52, 7.15, repro,
2011-04-19,-2.38, -5.03, 27.00, 1.94, 1.52, 7.07, repro,
2011-04-20,-1.83, -3.37, 31.16, 2.10, 1.64, 7.68, repro,
2011-04-21,-4.21, -2.91, 29.72, 2.15, 1.69, 7.94, repro,
2011-04-22,-2.59, -4.37, 25.98, 1.95, 1.52, 7.14, repro,
2011-04-23,-3.35, -4.49, 30.54, 1.95, 1.53, 7.16, repro,
2011-04-24,-2.69, -3.81, 28.81, 1.95, 1.52, 7.13, repro,
2011-04-25,-1.47, -4.72, 29.76, 1.96, 1.53, 7.18, repro,
2011-04-26,-1.09, -4.11, 22.11, 1.95, 1.53, 7.11, repro,
2011-04-27,-2.13, -2.92, 29.91, 2.39, 1.81, 8.81, repro,
2011-04-28,-1.32, -4.27, 27.55, 1.97, 1.53, 7.17, repro,
2011-04-29,-1.38, -3.49, 27.59, 1.95, 1.53, 7.15, repro,
2011-04-30,-1.86, -3.28, 25.96, 1.95, 1.53, 7.17, repro,
2011-05-01,-0.84, -2.67, 23.32, 2.01, 1.60, 7.50, repro,
2011-05-02,-2.46, -3.20, 30.53, 1.98, 1.54, 7.23, repro,
2011-05-03,-2.46, -3.61, 28.77, 1.99, 1.55, 7.27, repro,
2011-05-04,-2.43, -4.20, 28.72, 1.97, 1.55, 7.19, repro,
2011-05-05,-2.63, -4.72, 28.63, 1.98, 1.56, 7.22, repro,
2011-05-06,-1.78, -4.66, 32.29, 1.98, 1.56, 7.26, repro,
2011-05-07,-2.67, -4.44, 35.21, 1.98, 1.56, 7.32, repro,
2011-05-08,-0.96, -4.50, 36.03, 2.06, 1.62, 7.59, repro,
2011-05-09,-2.59, -4.27, 38.36, 1.97, 1.56, 7.31, repro,
2011-05-10,-0.69, -3.36, 38.15, 1.98, 1.60, 7.41, repro,
2011-05-11,-1.34, -4.62, 30.86, 1.94, 1.52, 7.08, repro,
2011-05-12,-1.31, -3.87, 26.88, 1.94, 1.52, 7.14, repro,
2011-05-13,-1.01, -4.05, 27.71, 1.96, 1.52, 7.15, repro,
2011-05-14,-2.68, -4.34, 37.71, 2.06, 1.61, 7.51, repro,
2011-05-15,-3.26, -4.19, 30.08, 1.98, 1.58, 7.38, repro,
2011-05-16,-1.02, -5.16, 25.07, 1.98, 1.56, 7.29, repro,
2011-05-17,-3.28, -5.02, 35.68, 1.98, 1.56, 7.29, repro,
2011-05-18,-2.18, -4.66, 34.14, 2.09, 1.63, 7.67, repro,
2011-05-19,-2.12, -4.19, 33.15, 2.06, 1.65, 7.80, repro,
2011-05-20,-1.85, -4.08, 25.55, 2.09, 1.64, 7.81, repro,
2011-05-21,-1.52, -3.44, 26.04, 2.00, 1.57, 7.42, repro,
2011-05-22,-0.96, -3.21, 26.08, 2.02, 1.58, 7.38, repro,
2011-05-23,-1.20, -3.56, 32.90, 1.98, 1.56, 7.27, repro,
2011-05-24,-1.19, -3.69, 34.33, 2.03, 1.57, 7.41, repro,
2011-05-25,-0.84, -3.59, 35.54, 2.01, 1.56, 7.32, repro,
2011-05-26,-0.17, -3.31, 35.22, 2.24, 1.79, 8.31, repro,
2011-06-08,-4.09, -4.24, 37.67, 3.37, 2.50, 12.14, repro,
2011-06-09,0.30, -2.34, 35.35, 2.02, 1.56, 7.41, repro,
2011-06-10,-2.04, -1.95, 35.03, 2.00, 1.55, 7.34, repro,
2011-06-11,-1.35, -3.47, 38.31, 1.98, 1.56, 7.35, repro,
2011-06-12,-2.17, -3.55, 42.38, 1.97, 1.56, 7.32, repro,
2011-06-13,-0.60, -2.20, 39.65, 1.98, 1.57, 7.33, repro,
2011-06-14,-1.10, -2.42, 39.74, 1.98, 1.55, 7.31, repro,
2011-06-15,-1.37, -2.25, 37.31, 1.99, 1.54, 7.27, repro,
2011-06-16,-1.29, -1.51, 35.85, 2.01, 1.57, 7.42, repro,
2011-06-17,-1.22, -1.57, 45.18, 3.14, 2.74, 12.23, repro,
2011-06-18,-0.30, -0.07, 41.86, 4.43, 3.09, 15.65, repro,
2011-06-19,-1.51, -4.00, 38.73, 1.98, 1.56, 7.32, repro,
2011-06-20,-0.32, -3.10, 35.04, 2.00, 1.56, 7.30, repro,
2011-06-21,-1.09, -2.56, 41.14, 2.00, 1.56, 7.32, repro,
2011-06-22,-1.16, -3.10, 41.37, 2.06, 1.63, 7.62, repro,
2011-06-23,-3.50, -2.11, 55.48, 4.69, 4.17, 19.42, repro,
2012-01-26,-2.07, -6.66, -0.15, 2.38, 1.96, 8.86, repro,
2012-01-27,-2.72, -7.29, 2.99, 1.95, 1.55, 7.16, repro,
2012-01-28,-2.68, -6.49, -0.43, 2.06, 1.60, 7.49, repro,
2012-01-29,-1.08, -7.02, 0.84, 1.97, 1.56, 7.27, repro,
2012-01-30,-2.57, -7.88, 9.86, 2.06, 1.65, 7.58, repro,
2012-01-31,-3.56, -7.86, 7.10, 1.94, 1.53, 7.13, repro,
2012-02-01,-3.50, -8.51, 6.43, 1.94, 1.54, 7.17, repro,
2012-02-02,-3.26, -8.74, 4.94, 2.03, 1.58, 7.53, repro,
2012-02-03,-2.23, -7.51, 2.83, 1.94, 1.53, 7.13, repro,
2012-02-04,-1.94, -7.28, 3.89, 1.98, 1.59, 7.33, repro,
2012-02-05,-2.50, -7.81, 8.67, 2.00, 1.62, 7.53, repro,
2012-02-06,-1.90, -8.15, 11.31, 1.96, 1.56, 7.25, repro,
2012-02-07,-3.95, -8.20, 7.95, 2.03, 1.57, 7.46, repro,
2012-02-08,-2.19, -8.37, 1.56, 2.03, 1.58, 7.32, repro,
2012-02-09,-2.69, -7.42, 0.97, 1.97, 1.56, 7.18, repro,
2012-02-10,-1.58, -8.21, 4.86, 1.98, 1.56, 7.20, repro,
2012-02-11,-3.30, -8.22, 9.18, 1.98, 1.56, 7.23, repro,
2012-02-12,-2.72, -8.80, 10.43, 2.00, 1.56, 7.27, repro,
2012-02-13,-2.95, -8.39, 9.57, 1.98, 1.55, 7.18, repro,
2012-02-14,-2.74, -9.13, 10.96, 1.96, 1.54, 7.09, repro,
2012-02-15,-0.97, -8.36, 8.47, 1.97, 1.54, 7.18, repro,
2012-02-16,-2.03, -7.60, 6.87, 1.96, 1.56, 7.17, repro,
2012-02-17,-1.72, -8.22, 4.41, 2.09, 1.61, 7.61, repro,
2012-02-18,-2.22, -7.68, 2.93, 1.98, 1.56, 7.21, repro,
2012-02-19,-1.79, -8.12, 11.39, 1.97, 1.55, 7.16, repro,
2012-02-20,-2.03, -7.68, 13.56, 1.97, 1.54, 7.13, repro,
2012-02-21,-1.22, -7.99, 14.26, 2.03, 1.60, 7.43, repro,
2012-02-22,-2.37, -8.78, 10.64, 2.03, 1.59, 7.43, repro,
2012-02-23,-2.43, -7.23, 13.08, 2.01, 1.56, 7.28, repro,
2012-02-24,-1.24, -7.28, 7.33, 2.03, 1.54, 7.37, repro,
2012-02-25,-0.47, -7.98, 7.73, 1.97, 1.54, 7.18, repro,
2012-02-26,-1.45, -7.32, 12.38, 2.05, 1.56, 7.47, repro,
2012-02-27,-2.32, -8.24, 12.88, 2.04, 1.56, 7.38, repro,
2012-02-28,-1.95, -8.48, 12.20, 2.02, 1.55, 7.28, repro,
2012-02-29,-2.49, -8.64, 9.11, 1.97, 1.54, 7.21, repro,
2012-03-01,-2.03, -7.31, 11.47, 2.11, 1.59, 7.47, repro,
2012-03-02,0.68, -7.65, 10.99, 2.12, 1.66, 7.49, repro,
2012-03-03,0.01, -6.26, 11.55, 1.98, 1.56, 7.22, repro,
2012-03-04,-1.27, -7.32, 7.50, 1.97, 1.52, 7.12, repro,
2012-03-05,-0.63, -7.21, 6.63, 2.07, 1.57, 7.37, repro,
2012-03-06,-0.91, -6.57, 12.59, 2.05, 1.58, 7.33, repro,
2012-03-07,-0.61, -7.44, 13.16, 2.02, 1.54, 7.20, repro,
2012-03-08,0.41, -5.37, 6.09, 2.07, 1.58, 7.51, repro,
2012-03-09,0.18, -6.59, 0.44, 2.02, 1.55, 7.30, repro,
2012-03-10,-2.37, -5.67, 7.01, 2.05, 1.56, 7.35, repro,
2012-03-11,-2.17, -8.17, 13.59, 2.11, 1.61, 7.57, repro,
2012-03-12,-2.79, -6.49, 16.13, 2.09, 1.59, 7.41, repro,
2012-03-13,-2.33, -8.38, 13.98, 2.08, 1.56, 7.47, repro,
2012-03-14,-0.44, -8.14, 8.20, 2.01, 1.58, 7.37, repro,
2012-03-15,-1.34, -6.00, 0.49, 2.08, 1.57, 7.54, repro,
2012-03-16,0.55, -6.84, 2.98, 1.99, 1.53, 7.26, repro,
2012-03-17,-0.97, -8.53, 8.98, 1.97, 1.53, 7.14, repro,
2012-03-18,-2.07, -6.73, 9.27, 2.03, 1.56, 7.30, repro,
2012-03-19,-0.09, -6.71, 10.56, 1.99, 1.53, 7.18, repro,
2012-03-20,-0.52, -7.41, 7.88, 1.97, 1.51, 7.13, repro,
2012-03-21,-1.85, -6.63, 2.94, 2.18, 1.62, 7.78, repro,
2012-03-22,-1.59, -6.47, 3.46, 1.99, 1.53, 7.20, repro,
2012-03-23,-1.03, -5.39, -0.35, 2.12, 1.61, 7.54, repro,
2012-03-24,-1.63, -7.94, 6.11, 2.02, 1.57, 7.31, repro,
2012-03-25,0.72, -7.00, -1.79, 3.04, 2.34, 10.82, repro,
2012-03-26,0.07, -4.24, 9.31, 3.72, 2.86, 13.85, repro,
2012-03-27,-2.41, -6.88, 11.40, 2.02, 1.54, 7.22, repro,
2012-03-28,-1.79, -5.87, 8.41, 2.02, 1.56, 7.28, repro,
2012-03-29,-0.83, -7.12, 8.28, 2.04, 1.54, 7.43, repro,
2012-03-30,-0.59, -6.24, 10.73, 2.01, 1.54, 7.22, repro,
2012-03-31,-2.86, -7.28, 15.92, 1.96, 1.52, 7.16, repro,
2012-04-01,-3.05, -7.85, 7.09, 1.95, 1.53, 7.19, repro,
2012-04-02,-2.47, -5.85, 7.38, 2.00, 1.53, 7.31, repro,
2012-04-03,-2.53, -6.26, 4.20, 1.95, 1.52, 7.15, repro,
2012-04-04,-2.04, -6.65, 7.42, 1.96, 1.53, 7.21, repro,
2012-04-05,-0.83, -5.43, 2.62, 1.95, 1.52, 7.20, repro,
2012-04-06,-2.02, -6.57, 9.67, 2.04, 1.56, 7.49, repro,
2012-04-07,-3.37, -6.78, 6.48, 1.95, 1.52, 7.16, repro,
2012-04-08,-4.03, -7.15, 6.40, 2.13, 1.65, 7.79, repro,
2012-04-09,-2.15, -6.35, 4.44, 2.00, 1.57, 7.37, repro,
2012-04-10,-1.70, -6.20, 6.19, 1.98, 1.53, 7.34, repro,
2012-04-11,-2.26, -7.68, 12.99, 1.95, 1.53, 7.18, repro,
2012-04-12,-2.10, -5.47, 1.62, 1.96, 1.58, 7.41, repro,
2012-04-13,-3.32, -7.72, 9.90, 1.95, 1.55, 7.25, repro,
2012-04-14,-4.33, -7.39, 12.75, 2.01, 1.53, 7.35, repro,
2012-04-15,-2.56, -8.12, 8.27, 2.06, 1.59, 7.60, repro,
2012-04-16,-0.28, -7.03, 8.11, 1.94, 1.52, 7.19, repro,
2012-04-17,-1.60, -8.06, 7.08, 1.93, 1.51, 7.08, repro,
2012-04-18,-2.23, -7.54, 10.09, 1.99, 1.54, 7.32, repro,
2012-04-19,-3.11, -6.61, 5.13, 2.11, 1.65, 7.56, repro,
2012-04-20,-3.66, -7.12, 9.93, 2.04, 1.57, 7.34, repro,
2012-04-21,-2.22, -7.37, 4.31, 1.96, 1.54, 7.23, repro,
2012-04-22,-3.30, -8.58, 16.47, 2.03, 1.56, 7.50, repro,
2012-04-23,-2.84, -6.40, 10.76, 2.02, 1.59, 7.50, repro,
2012-04-24,-2.20, -7.15, 11.05, 2.01, 1.57, 7.30, repro,
2012-04-25,-1.86, -7.08, 7.64, 2.07, 1.69, 7.72, repro,
2012-04-26,-1.67, -7.44, 10.28, 1.99, 1.54, 7.33, repro,
2012-04-27,-1.59, -7.77, 7.82, 2.05, 1.56, 7.39, repro,
2012-04-28,-1.75, -7.27, 15.78, 2.12, 1.73, 7.96, repro,
2012-04-29,-2.22, -7.52, 8.18, 1.95, 1.53, 7.18, repro,
2012-04-30,-2.06, -7.38, 9.01, 2.01, 1.53, 7.36, repro,
2012-05-01,-2.36, -7.01, 18.03, 1.99, 1.56, 7.38, repro,
2012-05-02,-1.46, -6.93, 17.55, 1.98, 1.55, 7.32, repro,
2012-05-03,-1.88, -7.04, 16.61, 1.95, 1.52, 7.15, repro,
2012-05-04,-2.18, -7.48, 9.32, 2.10, 1.60, 7.61, repro,
2012-05-05,-1.03, -5.95, 4.17, 1.98, 1.55, 7.24, repro,
2012-05-06,-1.48, -6.07, 3.88, 1.97, 1.57, 7.37, repro,
2012-05-07,-2.08, -6.07, 11.95, 1.98, 1.55, 7.22, repro,
2012-05-08,-2.77, -6.81, 12.19, 2.02, 1.53, 7.36, repro,
2012-05-09,-1.75, -6.28, 11.11, 1.94, 1.50, 7.10, repro,
2012-05-10,-3.10, -7.41, 11.86, 2.06, 1.58, 7.41, repro,
2012-05-11,-1.73, -6.23, 4.91, 1.95, 1.52, 7.18, repro,
2012-05-12,-2.22, -5.17, 6.94, 1.99, 1.54, 7.30, repro,
2012-05-13,-2.52, -4.90, 9.87, 1.96, 1.54, 7.18, repro,
2012-05-14,-1.66, -5.67, 8.46, 1.94, 1.51, 7.11, repro,
2012-05-15,-1.52, -5.76, 11.58, 1.95, 1.51, 7.12, repro,
2012-05-16,-0.71, -5.43, 10.46, 2.00, 1.52, 7.33, repro,
2012-05-17,-1.14, -6.62, 12.29, 2.01, 1.54, 7.44, repro,
2012-05-18,-1.60, -6.72, 17.33, 1.98, 1.55, 7.28, repro,
2012-05-19,-1.87, -6.28, 15.25, 1.97, 1.54, 7.22, repro,
2012-05-20,-1.33, -5.17, 13.43, 2.03, 1.58, 7.40, repro,
2012-05-21,-0.80, -5.43, 13.88, 2.03, 1.59, 7.33, repro,
2012-05-22,-1.30, -6.38, 14.00, 2.05, 1.60, 7.45, repro,
2012-05-23,-0.20, -4.69, 13.74, 2.05, 1.61, 7.44, repro,
2012-05-24,-0.77, -5.67, 14.08, 2.24, 1.80, 8.61, repro,
2012-05-25,-3.80, -7.01, 16.31, 2.32, 1.75, 8.40, repro,
2012-05-26,-1.11, -5.10, 15.83, 2.28, 1.88, 8.60, repro,
2012-05-27,0.59, -4.57, 7.85, 3.60, 2.76, 13.06, repro,
2012-05-28,-0.59, -4.38, 19.92, 2.14, 1.68, 7.85, repro,
2012-05-29,-0.33, -4.70, 13.15, 1.97, 1.53, 7.20, repro,
2012-05-30,-0.23, -4.44, 14.15, 2.18, 1.68, 8.00, repro,
2012-05-31,-0.45, -4.14, 13.58, 1.97, 1.52, 7.15, repro,
2012-06-01,0.57, -5.62, 15.92, 2.07, 1.55, 7.44, repro,
2012-06-02,0.29, -3.75, 18.07, 2.03, 1.54, 7.46, repro,
2012-06-03,-0.85, -4.88, 13.31, 1.94, 1.51, 7.09, repro,
2012-06-04,-1.66, -3.81, 27.03, 1.99, 1.58, 7.35, repro,
2012-06-05,-2.46, -4.40, 14.87, 2.06, 1.59, 7.62, repro,
2012-06-06,-0.45, -4.60, 12.91, 1.95, 1.52, 7.14, repro,
2012-06-07,-0.06, -4.05, 10.32, 1.94, 1.50, 7.05, repro,
2012-06-08,0.87, -2.56, 8.35, 2.32, 1.75, 8.11, repro,
2012-06-09,0.47, -3.65, 18.28, 1.96, 1.52, 7.18, repro,
2012-06-10,0.51, -4.27, 17.73, 1.94, 1.52, 7.17, repro,
2012-06-11,-1.32, -4.41, 10.29, 1.93, 1.51, 7.09, repro,
2012-06-12,-2.13, -4.68, 13.09, 1.95, 1.51, 7.09, repro,
2012-06-13,-0.48, -3.88, 16.06, 1.98, 1.54, 7.12, repro,
2012-06-14,-0.41, -4.05, 14.47, 1.96, 1.51, 7.15, repro,
2012-06-15,0.26, -5.24, 18.12, 1.95, 1.51, 7.13, repro,
2012-06-16,-0.02, -3.72, 14.47, 2.01, 1.59, 7.54, repro,
2012-06-17,0.03, -4.66, 18.88, 1.97, 1.51, 7.22, repro,
2012-06-18,-0.72, -3.07, 17.22, 1.95, 1.50, 7.10, repro,
2012-06-19,-0.92, -3.95, 16.05, 2.04, 1.58, 7.38, repro,
2012-06-20,-0.11, -4.16, 19.31, 1.95, 1.53, 7.23, repro,
2012-06-21,-0.20, -4.69, 14.66, 1.94, 1.51, 7.14, repro,
2012-06-22,0.22, -4.73, 10.60, 1.95, 1.52, 7.18, repro,
2012-06-23,-2.21, -4.04, 14.87, 1.95, 1.52, 7.20, repro,
2012-06-24,-1.97, -4.00, 14.09, 1.99, 1.51, 7.28, repro,
2012-06-25,-2.13, -3.94, 15.86, 2.03, 1.57, 7.55, repro,
2012-06-26,-0.54, -3.66, 18.00, 1.96, 1.52, 7.15, repro,
2012-06-27,-1.03, -4.66, 11.78, 1.94, 1.51, 7.15, repro,
2012-06-28,-0.16, -3.92, 11.44, 1.96, 1.51, 7.14, repro,
2012-06-29,0.29, -4.34, 11.53, 2.03, 1.56, 7.41, repro,
2012-06-30,0.20, -4.17, 12.92, 1.94, 1.51, 7.13, repro,
2012-07-01,1.87, -4.50, 13.84, 1.97, 1.52, 7.16, repro,
2012-07-02,1.14, -4.32, 15.36, 1.98, 1.50, 7.24, repro,
2012-07-03,-0.18, -4.52, 15.46, 1.98, 1.53, 7.23, repro,
2012-07-04,-0.04, -2.76, 13.25, 1.94, 1.52, 7.14, repro,
2012-07-05,-0.70, -4.08, 15.27, 1.96, 1.54, 7.17, repro,
2012-07-06,-0.18, -4.07, 12.81, 1.97, 1.55, 7.23, repro,
2012-07-07,0.73, -3.74, 11.98, 1.94, 1.50, 7.07, repro,
2012-07-08,-0.39, -3.84, 11.53, 1.96, 1.50, 7.13, repro,
2012-07-09,-1.21, -4.60, 10.52, 1.95, 1.51, 7.12, repro,
2012-07-10,-1.06, -4.33, 8.87, 2.18, 1.75, 8.31, repro,
2012-07-11,-0.43, -4.10, 16.32, 2.06, 1.55, 7.38, repro,